,,,PA_Meas_PMT16A,,PR_Meas_QMR101_102,,RH_Meas_QMH101,,SR_Meas_QMS101,,TA_Meas_QMH101,,GenWind,,GenWind,
date,time,status,PA,status,PR,status,RH,status,SR,status,TA,status,DirAvg,status,SpdAvg,
2014-12-13, 00:00:05,VALID,1009.57,VALID,0,INVALID,127.259,VALID,0,VALID,24.5905,VALID,339,VALID,0,
2014-12-13, 00:01:05,VALID,1009.56,VALID,0,INVALID,127.625,VALID,0,VALID,24.5905,VALID,339,VALID,0,
2014-12-13, 00:02:05,VALID,1009.58,VALID,0,INVALID,128.029,VALID,0,VALID,24.571,VALID,339,VALID,0,
2014-12-13, 00:03:05,VALID,1009.54,VALID,0,INVALID,128.601,VALID,0,VALID,24.571,VALID,339,VALID,0,
2014-12-13, 00:04:05,VALID,1009.53,VALID,0,INVALID,128.585,VALID,0,VALID,24.5515,VALID,339,VALID,0,
2014-12-13, 00:05:05,VALID,1009.53,VALID,0,INVALID,128.54,VALID,0,VALID,24.5496,VALID,339,VALID,0,
2014-12-13, 00:06:05,VALID,1009.52,VALID,0,INVALID,128.646,VALID,0,VALID,24.5515,VALID,339,VALID,0,
2014-12-13, 00:07:05,VALID,1009.51,VALID,0,INVALID,128.837,VALID,0,VALID,24.5515,VALID,339,VALID,0,
2014-12-13, 00:08:05,VALID,1009.52,VALID,0,INVALID,129.051,VALID,0,VALID,24.571,VALID,339,VALID,0,
2014-12-13, 00:09:05,VALID,1009.53,VALID,0,INVALID,128.73,VALID,0.112112,VALID,24.5496,VALID,339,VALID,0,
2014-12-13, 00:10:05,VALID,1009.51,VALID,0,INVALID,128.158,VALID,0,VALID,24.571,VALID,339,VALID,0,
2014-12-13, 00:11:05,VALID,1009.53,VALID,0,INVALID,127.617,VALID,0,VALID,24.5905,VALID,339,VALID,0,
2014-12-13, 00:12:05,VALID,1009.51,VALID,0,INVALID,127.32,VALID,0,VALID,24.5515,VALID,339,VALID,0,
2014-12-13, 00:13:05,VALID,1009.52,VALID,0,INVALID,127.32,VALID,0,VALID,24.5515,VALID,339,VALID,0,
2014-12-13, 00:14:05,VALID,1009.52,VALID,0,INVALID,127.381,VALID,0,VALID,24.571,VALID,339,VALID,0,
2014-12-13, 00:15:05,VALID,1009.52,VALID,0,INVALID,127.754,VALID,0,VALID,24.5515,VALID,339,VALID,0,
2014-12-13, 00:16:05,VALID,1009.52,VALID,0,INVALID,128.273,VALID,0.112112,VALID,24.532,VALID,339,VALID,0,
2014-12-13, 00:17:05,VALID,1009.5,VALID,0,INVALID,128.524,VALID,0,VALID,24.532,VALID,339,VALID,0,
2014-12-13, 00:18:04,VALID,1009.47,VALID,0,INVALID,128.143,VALID,0.112112,VALID,24.5106,VALID,339,VALID,0,
2014-12-13, 00:19:04,VALID,1009.47,VALID,0,INVALID,127.777,VALID,0.112112,VALID,24.5106,VALID,339,VALID,0,
2014-12-13, 00:20:04,VALID,1009.44,VALID,0,INVALID,128.204,VALID,0,VALID,24.5125,VALID,339,VALID,0,
2014-12-13, 00:21:04,VALID,1009.43,VALID,0,INVALID,128.845,VALID,0.112112,VALID,24.4911,VALID,339,VALID,0,
2014-12-13, 00:22:04,VALID,1009.4,VALID,0,INVALID,128.631,VALID,0,VALID,24.493,VALID,339,VALID,0,
2014-12-13, 00:23:04,VALID,1009.4,VALID,0,INVALID,128.372,VALID,0.112112,VALID,24.4735,VALID,339,VALID,0,
2014-12-13, 00:24:04,VALID,1009.38,VALID,0,INVALID,128.54,VALID,0,VALID,24.4522,VALID,339,VALID,0,
2014-12-13, 00:25:04,VALID,1009.4,VALID,0,INVALID,128.723,VALID,0,VALID,24.4327,VALID,339,VALID,0,
2014-12-13, 00:26:04,VALID,1009.38,VALID,0,INVALID,129.386,VALID,0,VALID,24.4327,VALID,339,VALID,0,
2014-12-13, 00:27:04,VALID,1009.39,VALID,0,INVALID,130.294,VALID,0,VALID,24.4735,VALID,339,VALID,0,
2014-12-13, 00:28:04,VALID,1009.38,VALID,0,INVALID,130.988,VALID,0,VALID,24.454,VALID,339,VALID,0,
2014-12-13, 00:29:04,VALID,1009.37,VALID,0,INVALID,131.498,VALID,0,VALID,24.4522,VALID,339,VALID,0,
2014-12-13, 00:30:04,VALID,1009.35,VALID,0,INVALID,131.933,VALID,0,VALID,24.454,VALID,339,VALID,0,
2014-12-13, 00:31:04,VALID,1009.33,VALID,0,INVALID,132.284,VALID,0,VALID,24.454,VALID,339,VALID,0,
2014-12-13, 00:32:04,VALID,1009.32,VALID,0,INVALID,132.536,VALID,0,VALID,24.4345,VALID,339,VALID,0,
2014-12-13, 00:33:04,VALID,1009.28,VALID,0,INVALID,132.978,VALID,0,VALID,24.4345,VALID,339,VALID,0,
2014-12-13, 00:34:04,VALID,1009.29,VALID,0,INVALID,133.138,VALID,0.112112,VALID,24.4132,VALID,339,VALID,0,
2014-12-13, 00:35:04,VALID,1009.24,VALID,0,INVALID,133.237,VALID,0,VALID,24.4345,VALID,339,VALID,0,
2014-12-13, 00:36:04,VALID,1009.23,VALID,0,INVALID,133.428,VALID,0,VALID,24.4132,VALID,339,VALID,0,
2014-12-13, 00:37:04,VALID,1009.23,VALID,0,INVALID,133.496,VALID,0,VALID,24.415,VALID,339,VALID,0,
2014-12-13, 00:38:04,VALID,1009.21,VALID,0,INVALID,133.557,VALID,0,VALID,24.3956,VALID,339,VALID,0,
2014-12-13, 00:39:04,VALID,1009.22,VALID,0,INVALID,133.359,VALID,0,VALID,24.3761,VALID,339,VALID,0,
2014-12-13, 00:40:04,VALID,1009.21,VALID,0,INVALID,133.298,VALID,0,VALID,24.3566,VALID,339,VALID,0,
2014-12-13, 00:41:04,VALID,1009.2,VALID,0,INVALID,133.649,VALID,0,VALID,24.3547,VALID,339,VALID,0,
2014-12-13, 00:42:04,VALID,1009.2,VALID,0,INVALID,133.931,VALID,0,VALID,24.3566,VALID,339,VALID,0,
2014-12-13, 00:43:04,VALID,1009.22,VALID,0,INVALID,134.251,VALID,0,VALID,24.3761,VALID,339,VALID,0,
2014-12-13, 00:44:04,VALID,1009.22,VALID,0,INVALID,134.64,VALID,0,VALID,24.3566,VALID,339,VALID,0,
2014-12-13, 00:45:04,VALID,1009.2,VALID,0,INVALID,134.915,VALID,0,VALID,24.3761,VALID,339,VALID,0,
2014-12-13, 00:46:04,VALID,1009.2,VALID,0,INVALID,134.938,VALID,0,VALID,24.3761,VALID,339,VALID,0,
2014-12-13, 00:47:04,VALID,1009.23,VALID,0,INVALID,134.922,VALID,0,VALID,24.3779,VALID,339,VALID,0,
2014-12-13, 00:48:04,VALID,1009.21,VALID,0,INVALID,134.846,VALID,0,VALID,24.3761,VALID,339,VALID,0,
2014-12-13, 00:49:04,VALID,1009.23,VALID,0,INVALID,134.61,VALID,0,VALID,24.3566,VALID,339,VALID,0,
2014-12-13, 00:50:04,VALID,1009.21,VALID,0,INVALID,134.534,VALID,0,VALID,24.3371,VALID,339,VALID,0,
2014-12-13, 00:51:04,VALID,1009.23,VALID,0,INVALID,134.816,VALID,0,VALID,24.3566,VALID,339,VALID,0,
2014-12-13, 00:52:04,VALID,1009.22,VALID,0,INVALID,134.961,VALID,0,VALID,24.3352,VALID,339,VALID,0,
2014-12-13, 00:53:04,VALID,1009.22,VALID,0,INVALID,135.037,VALID,0,VALID,24.3761,VALID,339,VALID,0,
2014-12-13, 00:54:04,VALID,1009.23,VALID,0,INVALID,135.105,VALID,0,VALID,24.3761,VALID,339,VALID,0,
2014-12-13, 00:55:04,VALID,1009.19,VALID,0,INVALID,135.113,VALID,0,VALID,24.3956,VALID,339,VALID,0,
2014-12-13, 00:56:04,VALID,1009.22,VALID,0,INVALID,135.075,VALID,0,VALID,24.415,VALID,339,VALID,0,
2014-12-13, 00:57:04,VALID,1009.21,VALID,0,INVALID,134.335,VALID,0,VALID,24.415,VALID,339,VALID,0,
2014-12-13, 00:58:04,VALID,1009.22,VALID,0,INVALID,133.496,VALID,0,VALID,24.4132,VALID,339,VALID,0,
2014-12-13, 00:59:04,VALID,1009.21,VALID,0,INVALID,132.139,VALID,0,VALID,24.415,VALID,339,VALID,0,
2014-12-13, 01:00:04,VALID,1009.23,VALID,0,INVALID,130.751,VALID,0,VALID,24.3956,VALID,339,VALID,0,
2014-12-13, 01:01:04,VALID,1009.23,VALID,0,INVALID,129.531,VALID,0,VALID,24.3956,VALID,339,VALID,0,
2014-12-13, 01:02:04,VALID,1009.21,VALID,0,INVALID,129.188,VALID,0,VALID,24.415,VALID,339,VALID,0,
2014-12-13, 01:03:04,VALID,1009.23,VALID,0,INVALID,127.869,VALID,0,VALID,24.3956,VALID,339,VALID,0,
2014-12-13, 01:04:04,VALID,1009.22,VALID,0,INVALID,127.037,VALID,0,VALID,24.3761,VALID,339,VALID,0,
2014-12-13, 01:05:04,VALID,1009.18,VALID,0,INVALID,126.496,VALID,0,VALID,24.3566,VALID,339,VALID,0,
2014-12-13, 01:06:04,VALID,1009.15,VALID,0,INVALID,126.397,VALID,0,VALID,24.3158,VALID,339,VALID,0,
2014-12-13, 01:07:04,VALID,1009.11,VALID,0,INVALID,126.824,VALID,0,VALID,24.3371,VALID,339,VALID,0,
2014-12-13, 01:08:04,VALID,1009.13,VALID,0,INVALID,126.824,VALID,0,VALID,24.3371,VALID,339,VALID,0,
2014-12-13, 01:09:04,VALID,1009.11,VALID,0,INVALID,127.121,VALID,0,VALID,24.3176,VALID,339,VALID,0,
2014-12-13, 01:10:04,VALID,1009.13,VALID,0,INVALID,127.373,VALID,0,VALID,24.3176,VALID,339,VALID,0,
2014-12-13, 01:11:04,VALID,1009.11,VALID,0,INVALID,127.907,VALID,0,VALID,24.2981,VALID,339,VALID,0,
2014-12-13, 01:12:04,VALID,1009.09,VALID,0,INVALID,128.898,VALID,0,VALID,24.2768,VALID,339,VALID,0,
2014-12-13, 01:13:04,VALID,1009.09,VALID,0,INVALID,129.462,VALID,0,VALID,24.2981,VALID,339,VALID,0,
2014-12-13, 01:14:04,VALID,1009.05,VALID,0,INVALID,129.478,VALID,0,VALID,24.2786,VALID,339,VALID,0,
2014-12-13, 01:15:04,VALID,1009.03,VALID,0,INVALID,129.554,VALID,0,VALID,24.2396,VALID,339,VALID,0,
2014-12-13, 01:16:04,VALID,1009.02,VALID,0,INVALID,130.873,VALID,0,VALID,24.2591,VALID,339,VALID,0,
2014-12-13, 01:17:04,VALID,1009.01,VALID,0,INVALID,130.843,VALID,0,VALID,24.2591,VALID,339,VALID,0,
2014-12-13, 01:18:04,VALID,1009,VALID,0,INVALID,130.408,VALID,0,VALID,24.2396,VALID,339,VALID,0,
2014-12-13, 01:19:04,VALID,1009,VALID,0,INVALID,130.042,VALID,0,VALID,24.2202,VALID,339,VALID,0,
2014-12-13, 01:20:04,VALID,1008.94,VALID,0,INVALID,129.348,VALID,0,VALID,24.2007,VALID,339,VALID,0,
2014-12-13, 01:21:04,VALID,1008.93,VALID,0,INVALID,129.226,VALID,0,VALID,24.2007,VALID,339,VALID,0,
2014-12-13, 01:22:04,VALID,1008.93,VALID,0,INVALID,129.645,VALID,0,VALID,24.1812,VALID,339,VALID,0,
2014-12-13, 01:23:04,VALID,1008.89,VALID,0,INVALID,130.05,VALID,0,VALID,24.1812,VALID,339,VALID,0,
2014-12-13, 01:24:04,VALID,1008.88,VALID,0,INVALID,130.728,VALID,0,VALID,24.1599,VALID,339,VALID,0,
2014-12-13, 01:25:04,VALID,1008.86,VALID,0,INVALID,131.544,VALID,0,VALID,24.1617,VALID,339,VALID,0,
2014-12-13, 01:26:04,VALID,1008.84,VALID,0,INVALID,132.436,VALID,0,VALID,24.1617,VALID,339,VALID,0,
2014-12-13, 01:27:04,VALID,1008.82,VALID,0,INVALID,133.275,VALID,0,VALID,24.1812,VALID,339,VALID,0,
2014-12-13, 01:28:04,VALID,1008.81,VALID,0,INVALID,133.893,VALID,0,VALID,24.1812,VALID,339,VALID,0,
2014-12-13, 01:29:04,VALID,1008.82,VALID,0,INVALID,133.931,VALID,0,VALID,24.1617,VALID,339,VALID,0,
2014-12-13, 01:30:04,VALID,1008.78,VALID,0,INVALID,133.923,VALID,0,VALID,24.1422,VALID,339,VALID,0,
2014-12-13, 01:31:04,VALID,1008.77,VALID,0,INVALID,134.091,VALID,0,VALID,24.1227,VALID,339,VALID,0,
2014-12-13, 01:32:04,VALID,1008.76,VALID,0,INVALID,134.328,VALID,0,VALID,24.1227,VALID,339,VALID,0,
2014-12-13, 01:33:04,VALID,1008.76,VALID,0,INVALID,134.503,VALID,0,VALID,24.1227,VALID,339,VALID,0,
2014-12-13, 01:34:04,VALID,1008.72,VALID,0,INVALID,134.251,VALID,0,VALID,24.0837,VALID,339,VALID,0,
2014-12-13, 01:35:04,VALID,1008.7,VALID,0,INVALID,133.954,VALID,0,VALID,24.0643,VALID,339,VALID,0,
2014-12-13, 01:36:04,VALID,1008.69,VALID,0,INVALID,133.931,VALID,0.112112,VALID,24.0429,VALID,339,VALID,0,
2014-12-13, 01:37:04,VALID,1008.67,VALID,0,INVALID,134.579,VALID,0,VALID,24.0643,VALID,339,VALID,0,
2014-12-13, 01:38:04,VALID,1008.68,VALID,0,INVALID,135.128,VALID,0,VALID,24.0448,VALID,339,VALID,0,
2014-12-13, 01:39:04,VALID,1008.69,VALID,0,INVALID,135.677,VALID,0,VALID,24.0643,VALID,339,VALID,0,
2014-12-13, 01:40:04,VALID,1008.67,VALID,0,INVALID,135.426,VALID,0,VALID,24.0448,VALID,339,VALID,0,
2014-12-13, 01:41:04,VALID,1008.69,VALID,0,INVALID,135.433,VALID,0,VALID,24.0448,VALID,339,VALID,0,
2014-12-13, 01:42:04,VALID,1008.67,VALID,0,INVALID,135.655,VALID,0,VALID,24.0253,VALID,339,VALID,0,
2014-12-13, 01:43:04,VALID,1008.65,VALID,0,INVALID,136.173,VALID,0,VALID,24.0448,VALID,339,VALID,0,
2014-12-13, 01:44:04,VALID,1008.64,VALID,0,INVALID,136.409,VALID,0,VALID,24.0253,VALID,339,VALID,0,
2014-12-13, 01:45:04,VALID,1008.62,VALID,0,INVALID,136.204,VALID,0,VALID,24.0253,VALID,339,VALID,0,
2014-12-13, 01:46:04,VALID,1008.62,VALID,0,INVALID,136.104,VALID,0,VALID,24.0058,VALID,339,VALID,0,
2014-12-13, 01:47:04,VALID,1008.61,VALID,0,INVALID,136.15,VALID,0.112112,VALID,24.0058,VALID,339,VALID,0,
2014-12-13, 01:48:04,VALID,1008.61,VALID,0,INVALID,136.15,VALID,0.112112,VALID,23.965,VALID,339,VALID,0,
2014-12-13, 01:49:04,VALID,1008.61,VALID,0,INVALID,136.402,VALID,0,VALID,23.9863,VALID,339,VALID,0,
2014-12-13, 01:50:04,VALID,1008.61,VALID,0,INVALID,136.47,VALID,0,VALID,23.9863,VALID,339,VALID,0,
2014-12-13, 01:51:04,VALID,1008.61,VALID,0,INVALID,136.661,VALID,0,VALID,23.9668,VALID,339,VALID,0,
2014-12-13, 01:52:04,VALID,1008.59,VALID,0,INVALID,136.661,VALID,0.112112,VALID,23.965,VALID,339,VALID,0,
2014-12-13, 01:53:04,VALID,1008.58,VALID,0,INVALID,136.638,VALID,0.112112,VALID,23.9668,VALID,339,VALID,0,
2014-12-13, 01:54:04,VALID,1008.54,VALID,0,INVALID,136.554,VALID,0.112112,VALID,23.9473,VALID,339,VALID,0,
2014-12-13, 01:55:04,VALID,1008.52,VALID,0,INVALID,136.478,VALID,0.112112,VALID,23.926,VALID,339,VALID,0,
2014-12-13, 01:56:04,VALID,1008.49,VALID,0,INVALID,136.478,VALID,0,VALID,23.9084,VALID,339,VALID,0,
2014-12-13, 01:57:04,VALID,1008.5,VALID,0,INVALID,136.623,VALID,0,VALID,23.9084,VALID,339,VALID,0,
2014-12-13, 01:58:04,VALID,1008.49,VALID,0,INVALID,137.157,VALID,0,VALID,23.9473,VALID,339,VALID,0,
2014-12-13, 01:59:04,VALID,1008.5,VALID,0,INVALID,137.119,VALID,0,VALID,23.9473,VALID,339,VALID,0,
2014-12-13, 02:00:04,VALID,1008.53,VALID,0,INVALID,137.187,VALID,0.112112,VALID,23.9278,VALID,339,VALID,0,
2014-12-13, 02:01:04,VALID,1008.51,VALID,0,INVALID,137.332,VALID,0.112112,VALID,23.926,VALID,339,VALID,0,
2014-12-13, 02:02:04,VALID,1008.55,VALID,0,INVALID,137.431,VALID,0,VALID,23.9065,VALID,339,VALID,0,
2014-12-13, 02:03:04,VALID,1008.5,VALID,0,INVALID,137.5,VALID,0,VALID,23.9278,VALID,339,VALID,0,
2014-12-13, 02:04:04,VALID,1008.49,VALID,0,INVALID,137.546,VALID,0,VALID,23.9278,VALID,339,VALID,0,
2014-12-13, 02:05:04,VALID,1008.5,VALID,0,INVALID,137.477,VALID,0,VALID,23.9084,VALID,339,VALID,0,
2014-12-13, 02:06:04,VALID,1008.49,VALID,0,INVALID,137.919,VALID,0,VALID,23.9473,VALID,339,VALID,0,
2014-12-13, 02:07:04,VALID,1008.5,VALID,0,INVALID,137.782,VALID,0.112112,VALID,23.9668,VALID,339,VALID,0,
2014-12-13, 02:08:04,VALID,1008.5,VALID,0,INVALID,137.82,VALID,0.112112,VALID,23.9668,VALID,339,VALID,0,
2014-12-13, 02:09:04,VALID,1008.51,VALID,0,INVALID,137.782,VALID,0.112112,VALID,23.926,VALID,339,VALID,0,
2014-12-13, 02:10:04,VALID,1008.49,VALID,0,INVALID,137.736,VALID,0.112112,VALID,23.9278,VALID,339,VALID,0,
2014-12-13, 02:11:04,VALID,1008.51,VALID,0,INVALID,137.706,VALID,0.112112,VALID,23.9278,VALID,339,VALID,0,
2014-12-13, 02:12:04,VALID,1008.47,VALID,0,INVALID,137.767,VALID,0.112112,VALID,23.9084,VALID,339,VALID,0,
2014-12-13, 02:13:04,VALID,1008.47,VALID,0,INVALID,137.752,VALID,0,VALID,23.9084,VALID,339,VALID,0,
2014-12-13, 02:14:04,VALID,1008.43,VALID,0,INVALID,137.813,VALID,0,VALID,23.9084,VALID,339,VALID,0,
2014-12-13, 02:15:04,VALID,1008.42,VALID,0,INVALID,137.843,VALID,0,VALID,23.8871,VALID,339,VALID,0,
2014-12-13, 02:16:04,VALID,1008.43,VALID,0,INVALID,137.79,VALID,0,VALID,23.8889,VALID,339,VALID,0,
2014-12-13, 02:17:04,VALID,1008.4,VALID,0,INVALID,137.927,VALID,0,VALID,23.8889,VALID,339,VALID,0,
2014-12-13, 02:18:04,VALID,1008.41,VALID,0,INVALID,138.224,VALID,0,VALID,23.8676,VALID,339,VALID,0,
2014-12-13, 02:19:04,VALID,1008.41,VALID,0,INVALID,138.156,VALID,0,VALID,23.8889,VALID,339,VALID,0,
2014-12-13, 02:20:04,VALID,1008.42,VALID,0,INVALID,138.148,VALID,0.112112,VALID,23.8694,VALID,339,VALID,0,
2014-12-13, 02:21:04,VALID,1008.41,VALID,0,INVALID,138.263,VALID,0.112112,VALID,23.8889,VALID,339,VALID,0,
2014-12-13, 02:22:04,VALID,1008.43,VALID,0,INVALID,138.179,VALID,0,VALID,23.8694,VALID,339,VALID,0,
2014-12-13, 02:23:04,VALID,1008.45,VALID,0,INVALID,138.171,VALID,0,VALID,23.8499,VALID,339,VALID,0,
2014-12-13, 02:24:04,VALID,1008.45,VALID,0,INVALID,138.133,VALID,0,VALID,23.8499,VALID,339,VALID,0,
2014-12-13, 02:25:04,VALID,1008.42,VALID,0,INVALID,138.278,VALID,0.112112,VALID,23.8499,VALID,339,VALID,0,
2014-12-13, 02:26:04,VALID,1008.41,VALID,0,INVALID,138.369,VALID,0.112112,VALID,23.8694,VALID,339,VALID,0,
2014-12-13, 02:27:04,VALID,1008.41,VALID,0,INVALID,138.308,VALID,0,VALID,23.8499,VALID,339,VALID,0,
2014-12-13, 02:28:04,VALID,1008.39,VALID,0,INVALID,138.232,VALID,0,VALID,23.8304,VALID,339,VALID,0,
2014-12-13, 02:29:04,VALID,1008.39,VALID,0,INVALID,138.362,VALID,0,VALID,23.8304,VALID,339,VALID,0,
2014-12-13, 02:30:04,VALID,1008.39,VALID,0,INVALID,138.385,VALID,0,VALID,23.8499,VALID,339,VALID,0,
2014-12-13, 02:31:04,VALID,1008.39,VALID,0,INVALID,138.377,VALID,0,VALID,23.8304,VALID,339,VALID,0,
2014-12-13, 02:32:04,VALID,1008.35,VALID,0,INVALID,138.27,VALID,0.112112,VALID,23.8304,VALID,339,VALID,0,
2014-12-13, 02:33:04,VALID,1008.34,VALID,0,INVALID,138.27,VALID,0,VALID,23.7914,VALID,339,VALID,0,
2014-12-13, 02:34:04,VALID,1008.33,VALID,0,INVALID,138.308,VALID,0,VALID,23.8109,VALID,339,VALID,0,
2014-12-13, 02:35:04,VALID,1008.32,VALID,0,INVALID,138.415,VALID,0,VALID,23.7914,VALID,339,VALID,0,
2014-12-13, 02:36:04,VALID,1008.34,VALID,0,INVALID,138.507,VALID,0,VALID,23.7914,VALID,339,VALID,0,
2014-12-13, 02:37:04,VALID,1008.35,VALID,0,INVALID,138.484,VALID,0.112112,VALID,23.7896,VALID,339,VALID,0,
2014-12-13, 02:38:04,VALID,1008.37,VALID,0,INVALID,138.552,VALID,0,VALID,23.7896,VALID,339,VALID,0,
2014-12-13, 02:39:04,VALID,1008.35,VALID,0,INVALID,138.568,VALID,0,VALID,23.7914,VALID,339,VALID,0,
2014-12-13, 02:40:04,VALID,1008.38,VALID,0,INVALID,138.613,VALID,0.112112,VALID,23.7914,VALID,339,VALID,0,
2014-12-13, 02:41:04,VALID,1008.36,VALID,0,INVALID,138.56,VALID,0.112112,VALID,23.772,VALID,339,VALID,0,
2014-12-13, 02:42:04,VALID,1008.36,VALID,0,INVALID,138.537,VALID,0,VALID,23.7525,VALID,339,VALID,0,
2014-12-13, 02:43:04,VALID,1008.37,VALID,0,INVALID,138.545,VALID,0.112112,VALID,23.7117,VALID,339,VALID,0,
2014-12-13, 02:44:04,VALID,1008.37,VALID,0,INVALID,138.56,VALID,0.112112,VALID,23.733,VALID,339,VALID,0,
2014-12-13, 02:45:04,VALID,1008.37,VALID,0,INVALID,138.568,VALID,0,VALID,23.7135,VALID,339,VALID,0,
2014-12-13, 02:46:04,VALID,1008.38,VALID,0,INVALID,138.491,VALID,0,VALID,23.694,VALID,339,VALID,0,
2014-12-13, 02:47:04,VALID,1008.41,VALID,0,INVALID,138.59,VALID,0,VALID,23.6727,VALID,339,VALID,0,
2014-12-13, 02:48:04,VALID,1008.41,VALID,0,INVALID,138.651,VALID,0,VALID,23.694,VALID,339,VALID,0,
2014-12-13, 02:49:04,VALID,1008.44,VALID,0,INVALID,138.69,VALID,0,VALID,23.694,VALID,339,VALID,0,
2014-12-13, 02:50:04,VALID,1008.43,VALID,0,INVALID,138.773,VALID,0,VALID,23.6745,VALID,339,VALID,0,
2014-12-13, 02:51:04,VALID,1008.43,VALID,0,INVALID,138.796,VALID,0,VALID,23.694,VALID,339,VALID,0,
2014-12-13, 02:52:04,VALID,1008.41,VALID,0,INVALID,138.796,VALID,0,VALID,23.694,VALID,339,VALID,0,
2014-12-13, 02:53:04,VALID,1008.42,VALID,0,INVALID,138.773,VALID,0,VALID,23.6745,VALID,339,VALID,0,
2014-12-13, 02:54:04,VALID,1008.4,VALID,0,INVALID,138.789,VALID,0,VALID,23.6745,VALID,339,VALID,0,
2014-12-13, 02:55:04,VALID,1008.44,VALID,0,INVALID,138.827,VALID,0,VALID,23.655,VALID,339,VALID,0,
2014-12-13, 02:56:04,VALID,1008.42,VALID,0,INVALID,138.903,VALID,0,VALID,23.6745,VALID,339,VALID,0,
2014-12-13, 02:57:04,VALID,1008.44,VALID,0,INVALID,138.842,VALID,0,VALID,23.6745,VALID,339,VALID,0,
2014-12-13, 02:58:04,VALID,1008.43,VALID,0,INVALID,138.895,VALID,0,VALID,23.6532,VALID,339,VALID,0,
2014-12-13, 02:59:04,VALID,1008.4,VALID,0,INVALID,138.918,VALID,0,VALID,23.694,VALID,339,VALID,0,
2014-12-13, 03:00:04,VALID,1008.43,VALID,0,INVALID,138.85,VALID,0,VALID,23.694,VALID,339,VALID,0,
2014-12-13, 03:01:04,VALID,1008.43,VALID,0,INVALID,138.85,VALID,0,VALID,23.6745,VALID,339,VALID,0,
2014-12-13, 03:02:04,VALID,1008.42,VALID,0,INVALID,138.88,VALID,0,VALID,23.6745,VALID,339,VALID,0,
2014-12-13, 03:03:04,VALID,1008.41,VALID,0,INVALID,138.865,VALID,0,VALID,23.6532,VALID,339,VALID,0,
2014-12-13, 03:04:04,VALID,1008.46,VALID,0,INVALID,138.888,VALID,0,VALID,23.694,VALID,339,VALID,0,
2014-12-13, 03:05:04,VALID,1008.46,VALID,0,INVALID,138.88,VALID,0.112112,VALID,23.6532,VALID,339,VALID,0,
2014-12-13, 03:06:04,VALID,1008.46,VALID,0,INVALID,138.888,VALID,0,VALID,23.655,VALID,339,VALID,0,
2014-12-13, 03:07:04,VALID,1008.48,VALID,0,INVALID,138.888,VALID,0,VALID,23.6745,VALID,339,VALID,0,
2014-12-13, 03:08:04,VALID,1008.52,VALID,0,INVALID,138.903,VALID,0.112112,VALID,23.6745,VALID,339,VALID,0,
2014-12-13, 03:09:04,VALID,1008.52,VALID,0,INVALID,138.865,VALID,0,VALID,23.6745,VALID,339,VALID,0,
2014-12-13, 03:10:04,VALID,1008.5,VALID,0,INVALID,138.827,VALID,0,VALID,23.694,VALID,339,VALID,0,
2014-12-13, 03:11:04,VALID,1008.52,VALID,0,INVALID,138.865,VALID,0,VALID,23.6727,VALID,339,VALID,0,
2014-12-13, 03:12:04,VALID,1008.52,VALID,0,INVALID,138.827,VALID,0,VALID,23.694,VALID,339,VALID,0,
2014-12-13, 03:13:04,VALID,1008.54,VALID,0,INVALID,138.72,VALID,0,VALID,23.733,VALID,339,VALID,0,
2014-12-13, 03:14:04,VALID,1008.49,VALID,0,INVALID,138.621,VALID,0,VALID,23.7525,VALID,339,VALID,0,
2014-12-13, 03:15:04,VALID,1008.53,VALID,0,INVALID,138.545,VALID,0,VALID,23.7312,VALID,339,VALID,0,
2014-12-13, 03:16:04,VALID,1008.51,VALID,0,INVALID,138.476,VALID,0,VALID,23.772,VALID,339,VALID,0,
2014-12-13, 03:17:04,VALID,1008.5,VALID,0,INVALID,138.491,VALID,0,VALID,23.733,VALID,339,VALID,0,
2014-12-13, 03:18:04,VALID,1008.52,VALID,0,INVALID,138.522,VALID,0,VALID,23.7525,VALID,339,VALID,0,
2014-12-13, 03:19:04,VALID,1008.53,VALID,0,INVALID,138.606,VALID,0,VALID,23.7135,VALID,339,VALID,0,
2014-12-13, 03:20:04,VALID,1008.52,VALID,0,INVALID,138.712,VALID,0,VALID,23.6745,VALID,339,VALID,0,
2014-12-13, 03:21:04,VALID,1008.55,VALID,0,INVALID,138.781,VALID,0,VALID,23.655,VALID,339,VALID,0,
2014-12-13, 03:22:04,VALID,1008.53,VALID,0,INVALID,138.88,VALID,0,VALID,23.6356,VALID,339,VALID,0,
2014-12-13, 03:23:04,VALID,1008.52,VALID,0,INVALID,138.956,VALID,0,VALID,23.6356,VALID,339,VALID,0,
2014-12-13, 03:24:04,VALID,1008.52,VALID,0,INVALID,139.071,VALID,0,VALID,23.6161,VALID,339,VALID,0,
2014-12-13, 03:25:04,VALID,1008.52,VALID,0,INVALID,139.132,VALID,0,VALID,23.6356,VALID,339,VALID,0,
2014-12-13, 03:26:04,VALID,1008.52,VALID,0,INVALID,139.04,VALID,0,VALID,23.6356,VALID,339,VALID,0,
2014-12-13, 03:27:04,VALID,1008.51,VALID,0,INVALID,139.094,VALID,0,VALID,23.5966,VALID,339,VALID,0,
2014-12-13, 03:28:04,VALID,1008.5,VALID,0,INVALID,139.155,VALID,0,VALID,23.6161,VALID,339,VALID,0,
2014-12-13, 03:29:04,VALID,1008.49,VALID,0,INVALID,139.071,VALID,0,VALID,23.6161,VALID,339,VALID,0,
2014-12-13, 03:30:04,VALID,1008.47,VALID,0,INVALID,139.101,VALID,0,VALID,23.6161,VALID,339,VALID,0,
2014-12-13, 03:31:04,VALID,1008.52,VALID,0,INVALID,139.056,VALID,0,VALID,23.5966,VALID,339,VALID,0,
2014-12-13, 03:32:04,VALID,1008.54,VALID,0,INVALID,139.117,VALID,0,VALID,23.5948,VALID,339,VALID,0,
2014-12-13, 03:33:04,VALID,1008.53,VALID,0,INVALID,139.01,VALID,0.112112,VALID,23.6161,VALID,339,VALID,0,
2014-12-13, 03:34:04,VALID,1008.54,VALID,0,INVALID,138.979,VALID,0,VALID,23.5966,VALID,339,VALID,0,
2014-12-13, 03:35:04,VALID,1008.55,VALID,0,INVALID,139.048,VALID,0,VALID,23.5753,VALID,339,VALID,0,
2014-12-13, 03:36:04,VALID,1008.55,VALID,0,INVALID,139.025,VALID,0,VALID,23.5966,VALID,339,VALID,0,
2014-12-13, 03:37:04,VALID,1008.56,VALID,0,INVALID,138.972,VALID,0,VALID,23.5966,VALID,339,VALID,0,
2014-12-13, 03:38:04,VALID,1008.57,VALID,0,INVALID,138.956,VALID,0,VALID,23.5753,VALID,339,VALID,0,
2014-12-13, 03:39:04,VALID,1008.56,VALID,0,INVALID,139.017,VALID,0,VALID,23.5771,VALID,339,VALID,0,
2014-12-13, 03:40:04,VALID,1008.56,VALID,0,INVALID,139.048,VALID,0.112112,VALID,23.5771,VALID,339,VALID,0,
2014-12-13, 03:41:04,VALID,1008.57,VALID,0,INVALID,139.048,VALID,0,VALID,23.5771,VALID,339,VALID,0,
2014-12-13, 03:42:04,VALID,1008.58,VALID,0,INVALID,138.987,VALID,0,VALID,23.5771,VALID,339,VALID,0,
2014-12-13, 03:43:04,VALID,1008.55,VALID,0,INVALID,138.979,VALID,0,VALID,23.5771,VALID,339,VALID,0,
2014-12-13, 03:44:04,VALID,1008.56,VALID,0,INVALID,139.01,VALID,0,VALID,23.5576,VALID,339,VALID,0,
2014-12-13, 03:45:04,VALID,1008.56,VALID,0,INVALID,139.033,VALID,0,VALID,23.5576,VALID,339,VALID,0,
2014-12-13, 03:46:04,VALID,1008.56,VALID,0,INVALID,139.002,VALID,0,VALID,23.5576,VALID,339,VALID,0,
2014-12-13, 03:47:04,VALID,1008.57,VALID,0,INVALID,138.987,VALID,0,VALID,23.5771,VALID,339,VALID,0,
2014-12-13, 03:48:04,VALID,1008.61,VALID,0,INVALID,138.941,VALID,0,VALID,23.5576,VALID,339,VALID,0,
2014-12-13, 03:49:04,VALID,1008.6,VALID,0,INVALID,138.926,VALID,0,VALID,23.5381,VALID,339,VALID,0,
2014-12-13, 03:50:04,VALID,1008.61,VALID,0,INVALID,138.964,VALID,0,VALID,23.5399,VALID,339,VALID,0,
2014-12-13, 03:51:04,VALID,1008.64,VALID,0,INVALID,138.964,VALID,0,VALID,23.4974,VALID,339,VALID,0,
2014-12-13, 03:52:04,VALID,1008.65,VALID,0,INVALID,139.01,VALID,0,VALID,23.5186,VALID,339,VALID,0,
2014-12-13, 03:53:04,VALID,1008.68,VALID,0,INVALID,138.995,VALID,0.112112,VALID,23.5186,VALID,339,VALID,0,